Eastover, SC

1:34 AM EDT on May 27, 2018 (GMT -0400)
McEntire Angs

Weather History for KMMT - September, 2013

Change the Weather History Date:

Wednesday, September 25, 2013

  Actual Average Record
Temperature  
Mean Temperature 68 °F -  
Max Temperature 75 °F 78 °F 95 °F (2010)
Min Temperature 62 °F 60 °F 50 °F (2012)
Cooling Degree Days 3    
Growing Degree Days 18 (Base 50)    
Moisture  
Dew Point 61 °F    
Average Humidity 84    
Maximum Humidity 100    
Minimum Humidity 55    
Precipitation  
Precipitation 0.56 in - - ()
Sea Level Pressure  
Sea Level Pressure 29.89 in    
Wind  
Wind Speed 5 mph (NE)    
Max Wind Speed 12 mph    
Max Gust Speed 18 mph    
Visibility 7 miles    
Events Rain    
Averages and records for this station are not official NWS values.
T = Trace of Precipitation, MM = Missing Value Source: NWS Daily Summary

Daily Weather History Graph

Daily Weather History Graph

Search for Another Location

Airport or City:

Astronomy

Sep. 25, 2013 Rise Set
Actual Time 7:13 AM EDT 7:15 PM EDT
Civil Twilight 6:48 AM EDT 7:40 PM EDT
Nautical Twilight 6:19 AM EDT 8:09 PM EDT
Astronomical Twilight 5:50 AM EDT 8:38 PM EDT
Moon 11:34 PM EDT (9/25) 1:03 PM EDT (9/25)
Length of Visible Light 12h 51m
Length of Day
12h 01m
Waning Gibbous, 64% of the Moon is Illuminated
Sep 25
Waning Gibbous
Sep 26
Last Quarter
Oct 4
New
Oct 11
First Quarter
Oct 18
Full

Hourly Weather History & Observations

Time (EDT) Temp. Dew Point Humidity Pressure Visibility Wind Dir Wind Speed Gust Speed Precip Events Conditions
12:58 AM 65.3 °F 60.3 °F 84% 29.95 in 10.0 mi East 3.5 mph - N/A   Overcast
1:58 AM 64.8 °F 60.6 °F 86% 29.94 in 10.0 mi East 2.3 mph - N/A   Overcast
2:58 AM 64.6 °F 60.4 °F 86% 29.93 in 10.0 mi East 4.6 mph - N/A   Overcast
3:58 AM 64.9 °F 60.4 °F 85% 29.91 in 10.0 mi East 4.6 mph - N/A   Overcast
4:58 AM 65.1 °F 59.7 °F 83% 29.88 in 10.0 mi East 6.9 mph - N/A   Mostly Cloudy
5:58 AM 64.8 °F 59.5 °F 83% 29.91 in 10.0 mi East 5.8 mph - N/A   Overcast
6:58 AM 64.8 °F 58.8 °F 81% 29.91 in 10.0 mi ENE 4.6 mph - N/A   Overcast
7:58 AM 64.8 °F 58.6 °F 81% 29.91 in 10.0 mi East 5.8 mph - N/A   Mostly Cloudy
10:58 AM 71.4 °F 58.3 °F 63% 29.91 in 10.0 mi East 8.1 mph - N/A   Mostly Cloudy
11:58 AM 72.3 °F 56.8 °F 58% 29.91 in 10.0 mi East 10.4 mph - N/A   Overcast
12:58 PM 74.5 °F 58.3 °F 57% 29.91 in 10.0 mi NE 9.2 mph - N/A   Mostly Cloudy
1:58 PM 74.8 °F 57.9 °F 55% 29.88 in 10.0 mi NE 8.1 mph - N/A   Mostly Cloudy
2:58 PM 74.7 °F 57.7 °F 55% 29.87 in 10.0 mi ENE 8.1 mph - N/A   Mostly Cloudy
3:58 PM 73.4 °F 57.4 °F 57% 29.86 in 10.0 mi NE 5.8 mph - N/A   Overcast
4:48 PM 69.8 °F 59.0 °F 68% 29.86 in 7.0 mi NNE 5.8 mph - N/A Rain Light Rain
4:56 PM 69.8 °F 59.0 °F 68% 29.85 in 2.0 mi NE 6.9 mph - N/A Rain Light Rain
4:58 PM 69.8 °F 59.2 °F 69% 29.87 in 1.8 mi NE 5.8 mph - 0.00 in Rain Rain
5:03 PM 68.0 °F 60.8 °F 78% 29.86 in 2.5 mi North 4.6 mph - N/A Rain Light Rain
5:08 PM 66.2 °F 60.8 °F 83% 29.86 in 5.0 mi North 4.6 mph - N/A Rain Light Rain
5:45 PM 66.2 °F 64.4 °F 94% 29.86 in 7.0 mi NNE 5.8 mph - N/A   Overcast
5:58 PM 66.2 °F 63.9 °F 92% 29.87 in 10.0 mi NNE 5.8 mph - 0.12 in   Overcast
6:58 PM 65.7 °F 62.2 °F 89% 29.88 in 10.0 mi NNE 5.8 mph - N/A   Overcast
7:36 PM 64.4 °F 60.8 °F 88% 29.88 in 5.0 mi North 6.9 mph - N/A Rain Light Rain
7:58 PM 64.4 °F 61.5 °F 90% 29.88 in 5.0 mi NE 4.6 mph - 0.02 in Rain Light Rain
8:31 PM 64.4 °F 62.6 °F 94% 29.87 in 3.0 mi NE 3.5 mph - N/A Rain Light Rain
8:48 PM 64.4 °F 62.6 °F 94% 29.87 in 4.0 mi NE 4.6 mph - N/A Rain Light Rain
8:58 PM 63.9 °F 62.4 °F 95% 29.88 in 3.0 mi Variable 4.6 mph - 0.02 in Rain Rain
9:02 PM 64.4 °F 62.6 °F 94% 29.88 in 1.8 mi North 6.9 mph - N/A Rain Rain
9:08 PM 64.4 °F 62.6 °F 94% 29.88 in 2.0 mi North 5.8 mph - N/A Rain Light Rain
9:28 PM 64.4 °F 62.6 °F 94% 29.88 in 3.0 mi North 3.5 mph - N/A Rain Light Rain
9:45 PM 64.4 °F 62.6 °F 94% 29.90 in 2.0 mi NNW 8.1 mph - N/A Rain Rain
9:48 PM 64.4 °F 62.6 °F 94% 29.89 in 1.5 mi NNW 9.2 mph - N/A Rain Rain
9:58 PM 63.7 °F 63.0 °F 97% 29.90 in 1.8 mi North 11.5 mph 18.4 mph 0.30 in Rain Rain
10:11 PM 62.6 °F 62.6 °F 100% 29.90 in 2.0 mi North 5.8 mph - N/A Rain Light Rain
10:18 PM 62.6 °F 62.6 °F 100% 29.89 in 3.0 mi NNE 6.9 mph - N/A Rain Light Rain
10:58 PM 62.6 °F 62.6 °F 100% 29.90 in 6.0 mi Variable 3.5 mph - 0.10 in Rain Light Rain
11:08 PM 62.6 °F 62.6 °F 100% 29.89 in 10.0 mi NNE 4.6 mph - N/A Rain Light Rain
11:18 PM 62.6 °F 62.6 °F 100% 29.88 in 9.0 mi NE 5.8 mph - N/A   Light Drizzle
11:58 PM 63.1 °F 62.6 °F 98% 29.90 in 10.0 mi ENE 2.3 mph - 0.00 in   Overcast